date,time,SUV Intensity [MED/Hr],UV Index,Daily total [MED],Since Last [MED]
25/04/2023,00:01:00,0.000,0.0,0.0,0.0
25/04/2023,00:02:01,0.000,0.0,0.0,0.0
25/04/2023,00:03:01,0.000,0.0,0.0,0.0
25/04/2023,00:04:01,-0.000,0.0,0.0,0.0
25/04/2023,00:05:01,0.000,0.0,0.0,0.0
25/04/2023,00:06:00,-0.000,0.0,0.0,0.0
25/04/2023,00:07:00,0.000,0.0,0.0,0.0
25/04/2023,00:08:00,0.000,0.0,0.0,0.0
25/04/2023,00:09:00,0.000,0.0,0.0,0.0
25/04/2023,00:10:00,-0.000,0.0,0.0,0.0
25/04/2023,00:11:01,0.000,0.0,0.0,0.0
25/04/2023,00:12:00,-0.001,0.0,0.0,0.0
25/04/2023,00:13:00,0.000,0.0,0.0,0.0
25/04/2023,00:14:01,-0.001,0.0,0.0,0.0
25/04/2023,00:15:01,0.000,0.0,0.0,0.0
25/04/2023,00:16:01,0.000,0.0,0.0,0.0
25/04/2023,00:17:00,0.000,0.0,0.0,0.0
25/04/2023,00:18:00,0.001,0.0,0.0,0.0
25/04/2023,00:19:00,0.000,0.0,0.0,0.0
25/04/2023,00:20:01,0.001,0.0,0.0,0.0
25/04/2023,00:21:00,0.000,0.0,0.0,0.0
25/04/2023,00:22:00,-0.000,0.0,0.0,0.0
25/04/2023,00:23:00,0.000,0.0,0.0,0.0
25/04/2023,00:24:00,0.000,0.0,0.0,0.0
25/04/2023,00:25:01,0.000,0.0,0.0,0.0
25/04/2023,00:26:01,0.000,0.0,0.0,0.0
25/04/2023,00:27:01,0.001,0.0,0.0,0.0
25/04/2023,00:28:01,0.000,0.0,0.0,0.0
25/04/2023,00:29:01,0.000,0.0,0.0,0.0
25/04/2023,00:30:01,0.001,0.0,0.0,0.0
25/04/2023,00:31:01,0.000,0.0,0.0,0.0
25/04/2023,00:32:01,0.000,0.0,0.0,0.0
25/04/2023,00:33:01,0.001,0.0,0.0,0.0
25/04/2023,00:34:00,0.000,0.0,0.0,0.0
25/04/2023,00:35:00,0.000,0.0,0.0,0.0
25/04/2023,00:36:00,0.000,0.0,0.0,0.0
25/04/2023,00:37:01,0.001,0.0,0.0,0.0
25/04/2023,00:38:01,0.000,0.0,0.0,0.0
25/04/2023,00:39:01,0.001,0.0,0.0,0.0
25/04/2023,00:40:01,0.001,0.0,0.0,0.0
25/04/2023,00:41:00,-0.000,0.0,0.0,0.0
25/04/2023,00:42:00,0.001,0.0,0.0,0.0
25/04/2023,00:43:01,0.001,0.0,0.0,0.0
25/04/2023,00:44:00,0.001,0.0,0.0,0.0
25/04/2023,00:45:00,0.001,0.0,0.0,0.0
25/04/2023,00:46:00,0.000,0.0,0.0,0.0
25/04/2023,00:47:01,0.000,0.0,0.0,0.0
25/04/2023,00:48:01,0.001,0.0,0.0,0.0
25/04/2023,00:49:01,0.000,0.0,0.0,0.0
25/04/2023,00:50:01,-0.000,0.0,0.0,0.0
25/04/2023,00:51:01,0.002,0.0,0.0,0.0
25/04/2023,00:52:00,0.001,0.0,0.0,0.0
25/04/2023,00:53:00,0.002,0.0,0.0,0.0
25/04/2023,00:54:00,0.001,0.0,0.0,0.0
25/04/2023,00:55:00,0.001,0.0,0.0,0.0
25/04/2023,00:56:00,0.001,0.0,0.0,0.0
25/04/2023,00:57:00,0.002,0.0,0.0,0.0
25/04/2023,00:58:00,0.002,0.0,0.0,0.0
25/04/2023,00:59:01,0.002,0.0,0.0,0.0
25/04/2023,01:00:01,0.001,0.0,0.0,0.0
25/04/2023,01:01:01,0.001,0.0,0.0,0.0
25/04/2023,01:02:01,0.000,0.0,0.0,0.0
25/04/2023,01:03:00,0.001,0.0,0.0,0.0
25/04/2023,01:04:01,-0.000,0.0,0.0,0.0
25/04/2023,01:05:01,0.001,0.0,0.0,0.0
25/04/2023,01:06:01,0.001,0.0,0.0,0.0
25/04/2023,01:07:01,0.001,0.0,0.0,0.0
25/04/2023,01:08:00,0.001,0.0,0.0,0.0
25/04/2023,01:09:00,0.000,0.0,0.0,0.0
25/04/2023,01:10:01,0.002,0.0,0.0,0.0
25/04/2023,01:11:01,0.001,0.0,0.0,0.0
25/04/2023,01:12:01,0.001,0.0,0.0,0.0
25/04/2023,01:13:00,0.001,0.0,0.0,0.0
25/04/2023,01:14:01,0.001,0.0,0.0,0.0
25/04/2023,01:15:01,0.001,0.0,0.0,0.0
25/04/2023,01:16:01,0.001,0.0,0.0,0.0
25/04/2023,01:17:00,0.001,0.0,0.0,0.0
25/04/2023,01:18:00,0.001,0.0,0.0,0.0
25/04/2023,01:19:00,0.001,0.0,0.0,0.0
25/04/2023,01:20:01,0.001,0.0,0.0,0.0
25/04/2023,01:21:00,0.001,0.0,0.0,0.0
25/04/2023,01:22:01,0.001,0.0,0.0,0.0
25/04/2023,01:23:00,0.001,0.0,0.0,0.0
25/04/2023,01:24:00,0.000,0.0,0.0,0.0
25/04/2023,01:25:00,0.001,0.0,0.0,0.0
25/04/2023,01:26:01,-0.000,0.0,0.0,0.0
25/04/2023,01:27:00,0.001,0.0,0.0,0.0
25/04/2023,01:28:00,0.001,0.0,0.0,0.0
25/04/2023,01:29:00,0.002,0.0,0.0,0.0
25/04/2023,01:30:00,0.001,0.0,0.0,0.0
25/04/2023,01:31:00,0.001,0.0,0.0,0.0
25/04/2023,01:32:01,0.000,0.0,0.0,0.0
25/04/2023,01:33:01,0.002,0.0,0.0,0.0
25/04/2023,01:34:01,0.001,0.0,0.0,0.0
25/04/2023,01:35:01,0.001,0.0,0.0,0.0
25/04/2023,01:36:01,0.001,0.0,0.0,0.0
25/04/2023,01:37:01,0.001,0.0,0.0,0.0
25/04/2023,01:38:00,0.002,0.0,0.0,0.0
25/04/2023,01:39:00,0.002,0.0,0.0,0.0
25/04/2023,01:40:00,0.001,0.0,0.0,0.0
25/04/2023,01:41:00,0.000,0.0,0.0,0.0
25/04/2023,01:42:01,0.002,0.0,0.0,0.0
25/04/2023,01:43:01,-0.001,0.0,0.0,0.0
25/04/2023,01:44:01,0.001,0.0,0.0,0.0
25/04/2023,01:45:01,0.001,0.0,0.0,0.0
25/04/2023,01:46:01,0.002,0.0,0.0,0.0
25/04/2023,01:47:00,0.001,0.0,0.0,0.0
25/04/2023,01:48:01,0.001,0.0,0.0,0.0
25/04/2023,01:49:00,0.001,0.0,0.0,0.0
25/04/2023,01:50:00,0.001,0.0,0.0,0.0
25/04/2023,01:51:01,0.001,0.0,0.0,0.0
25/04/2023,01:52:01,0.001,0.0,0.0,0.0
25/04/2023,01:53:00,0.001,0.0,0.0,0.0
25/04/2023,01:54:00,0.001,0.0,0.0,0.0
25/04/2023,01:55:01,0.000,0.0,0.0,0.0
25/04/2023,01:56:01,0.001,0.0,0.0,0.0
25/04/2023,01:57:01,0.001,0.0,0.0,0.0
25/04/2023,01:58:01,0.001,0.0,0.0,0.0
25/04/2023,01:59:01,0.000,0.0,0.0,0.0
25/04/2023,02:00:00,0.001,0.0,0.0,0.0
25/04/2023,02:01:00,0.000,0.0,0.0,0.0
25/04/2023,02:02:01,0.001,0.0,0.0,0.0
25/04/2023,02:03:01,0.001,0.0,0.0,0.0
25/04/2023,02:04:01,0.002,0.0,0.0,0.0
25/04/2023,02:05:01,0.001,0.0,0.0,0.0
25/04/2023,02:06:00,0.000,0.0,0.0,0.0
25/04/2023,02:07:00,0.002,0.0,0.0,0.0
25/04/2023,02:08:01,0.001,0.0,0.0,0.0
25/04/2023,02:09:01,0.002,0.0,0.0,0.0
25/04/2023,02:10:01,0.002,0.0,0.0,0.0
25/04/2023,02:11:01,0.001,0.0,0.0,0.0
25/04/2023,02:12:01,0.001,0.0,0.0,0.0
25/04/2023,02:13:01,0.001,0.0,0.0,0.0
25/04/2023,02:14:01,0.002,0.0,0.0,0.0
25/04/2023,02:15:01,0.001,0.0,0.0,0.0
25/04/2023,02:16:01,0.000,0.0,0.0,0.0
25/04/2023,02:17:01,0.001,0.0,0.0,0.0
25/04/2023,02:18:01,0.002,0.0,0.0,0.0
25/04/2023,02:19:00,0.001,0.0,0.0,0.0
25/04/2023,02:20:01,0.001,0.0,0.0,0.0
25/04/2023,02:21:01,0.001,0.0,0.0,0.0
25/04/2023,02:22:01,0.001,0.0,0.0,0.0
25/04/2023,02:23:01,0.001,0.0,0.0,0.0
25/04/2023,02:24:01,0.002,0.0,0.0,0.0
25/04/2023,02:25:00,0.001,0.0,0.0,0.0
25/04/2023,02:26:00,0.001,0.0,0.0,0.0
25/04/2023,02:27:00,0.001,0.0,0.0,0.0
25/04/2023,02:28:01,0.002,0.0,0.0,0.0
25/04/2023,02:29:00,0.002,0.0,0.0,0.0
25/04/2023,02:30:01,0.001,0.0,0.0,0.0
25/04/2023,02:31:01,0.001,0.0,0.0,0.0
25/04/2023,02:32:01,0.002,0.0,0.0,0.0
25/04/2023,02:33:01,0.001,0.0,0.0,0.0
25/04/2023,02:34:01,0.000,0.0,0.0,0.0
25/04/2023,02:35:01,0.001,0.0,0.0,0.0
25/04/2023,02:36:00,0.002,0.0,0.0,0.0
25/04/2023,02:37:01,0.001,0.0,0.0,0.0
25/04/2023,02:38:01,0.001,0.0,0.0,0.0
25/04/2023,02:39:01,0.001,0.0,0.0,0.0
25/04/2023,02:40:01,0.001,0.0,0.0,0.0
25/04/2023,02:41:01,0.001,0.0,0.0,0.0
25/04/2023,02:42:00,0.002,0.0,0.0,0.0
25/04/2023,02:43:01,0.001,0.0,0.0,0.0
25/04/2023,02:44:01,0.001,0.0,0.0,0.0
25/04/2023,02:45:01,0.001,0.0,0.0,0.0
25/04/2023,02:46:01,0.001,0.0,0.0,0.0
25/04/2023,02:47:01,0.001,0.0,0.0,0.0
25/04/2023,02:48:01,0.002,0.0,0.0,0.0
25/04/2023,02:49:01,0.001,0.0,0.0,0.0
25/04/2023,02:50:01,0.001,0.0,0.0,0.0
25/04/2023,02:51:01,0.001,0.0,0.0,0.0
25/04/2023,02:52:00,0.001,0.0,0.0,0.0
25/04/2023,02:53:01,0.001,0.0,0.0,0.0
25/04/2023,02:54:01,0.002,0.0,0.0,0.0
25/04/2023,02:55:01,0.001,0.0,0.0,0.0
25/04/2023,02:56:01,0.001,0.0,0.0,0.0
25/04/2023,02:57:01,0.001,0.0,0.0,0.0
25/04/2023,02:58:00,0.002,0.0,0.0,0.0
25/04/2023,02:59:00,0.002,0.0,0.0,0.0
25/04/2023,03:00:01,0.001,0.0,0.0,0.0
25/04/2023,03:01:00,0.000,0.0,0.0,0.0
25/04/2023,03:02:01,0.000,0.0,0.0,0.0
25/04/2023,03:03:01,0.000,0.0,0.0,0.0
25/04/2023,03:04:01,0.001,0.0,0.0,0.0
25/04/2023,03:05:01,0.001,0.0,0.0,0.0
25/04/2023,03:06:01,0.001,0.0,0.0,0.0
25/04/2023,03:07:00,0.002,0.0,0.0,0.0
25/04/2023,03:08:01,0.001,0.0,0.0,0.0
25/04/2023,03:09:00,0.002,0.0,0.0,0.0
25/04/2023,03:10:00,0.002,0.0,0.0,0.0
25/04/2023,03:11:01,0.001,0.0,0.0,0.0
25/04/2023,03:12:01,0.001,0.0,0.0,0.0
25/04/2023,03:13:01,0.000,0.0,0.0,0.0
25/04/2023,03:14:01,0.001,0.0,0.0,0.0
25/04/2023,03:15:01,0.002,0.0,0.0,0.0
25/04/2023,03:16:01,0.002,0.0,0.0,0.0
25/04/2023,03:17:01,0.002,0.0,0.0,0.0
25/04/2023,03:18:02,0.001,0.0,0.0,0.0
25/04/2023,03:19:01,0.002,0.0,0.0,0.0
25/04/2023,03:20:01,0.002,0.0,0.0,0.0
25/04/2023,03:21:00,0.002,0.0,0.0,0.0
25/04/2023,03:22:00,0.002,0.0,0.0,0.0
25/04/2023,03:23:01,0.001,0.0,0.0,0.0
25/04/2023,03:24:01,0.001,0.0,0.0,0.0
25/04/2023,03:25:01,0.002,0.0,0.0,0.0
25/04/2023,03:26:01,0.001,0.0,0.0,0.0
25/04/2023,03:27:01,0.001,0.0,0.0,0.0
25/04/2023,03:28:00,0.001,0.0,0.0,0.0
25/04/2023,03:29:01,0.002,0.0,0.0,0.0
25/04/2023,03:30:01,0.001,0.0,0.0,0.0
25/04/2023,03:31:01,0.001,0.0,0.0,0.0
25/04/2023,03:32:01,0.002,0.0,0.0,0.0
25/04/2023,03:33:01,0.001,0.0,0.0,0.0
25/04/2023,03:34:01,0.001,0.0,0.0,0.0
25/04/2023,03:35:01,0.002,0.0,0.0,0.0
25/04/2023,03:36:00,0.000,0.0,0.0,0.0
25/04/2023,03:37:01,0.001,0.0,0.0,0.0
25/04/2023,03:38:01,0.001,0.0,0.0,0.0
25/04/2023,03:39:01,0.001,0.0,0.0,0.0
25/04/2023,03:40:01,0.001,0.0,0.0,0.0
25/04/2023,03:41:01,0.001,0.0,0.0,0.0
25/04/2023,03:42:01,0.002,0.0,0.0,0.0
25/04/2023,03:43:01,0.002,0.0,0.0,0.0
25/04/2023,03:44:01,0.001,0.0,0.0,0.0
25/04/2023,03:45:01,0.002,0.0,0.0,0.0
25/04/2023,03:46:01,0.002,0.0,0.0,0.0
25/04/2023,03:47:01,0.001,0.0,0.0,0.0
25/04/2023,03:48:01,0.001,0.0,0.0,0.0
25/04/2023,03:49:01,0.002,0.0,0.0,0.0
25/04/2023,03:50:00,0.002,0.0,0.0,0.0
25/04/2023,03:51:01,0.000,0.0,0.0,0.0
25/04/2023,03:52:00,0.000,0.0,0.0,0.0
25/04/2023,03:53:01,0.001,0.0,0.0,0.0
25/04/2023,03:54:01,0.002,0.0,0.0,0.0
25/04/2023,03:55:01,0.003,0.0,0.0,0.0
25/04/2023,03:56:01,0.002,0.0,0.0,0.0
25/04/2023,03:57:01,0.001,0.0,0.0,0.0
25/04/2023,03:58:01,0.001,0.0,0.0,0.0
25/04/2023,03:59:01,0.001,0.0,0.0,0.0
25/04/2023,04:00:01,0.002,0.0,0.0,0.0
25/04/2023,04:01:01,0.001,0.0,0.0,0.0
25/04/2023,04:02:01,0.000,0.0,0.0,0.0
25/04/2023,04:03:00,0.002,0.0,0.0,0.0
25/04/2023,04:04:01,0.002,0.0,0.0,0.0
25/04/2023,04:05:01,0.002,0.0,0.0,0.0
25/04/2023,04:06:01,0.002,0.0,0.0,0.0
25/04/2023,04:07:00,0.002,0.0,0.0,0.0
25/04/2023,04:08:01,0.003,0.0,0.0,0.0
25/04/2023,04:09:01,0.002,0.0,0.0,0.0
25/04/2023,04:10:01,0.002,0.0,0.0,0.0
25/04/2023,04:11:01,0.001,0.0,0.0,0.0
25/04/2023,04:12:01,0.002,0.0,0.0,0.0
25/04/2023,04:13:01,0.002,0.0,0.0,0.0
25/04/2023,04:14:01,0.001,0.0,0.0,0.0
25/04/2023,04:15:01,0.002,0.0,0.0,0.0
25/04/2023,04:16:01,0.002,0.0,0.0,0.0
25/04/2023,04:17:01,0.002,0.0,0.0,0.0
25/04/2023,04:18:01,0.001,0.0,0.0,0.0
25/04/2023,04:19:01,0.001,0.0,0.0,0.0
25/04/2023,04:20:01,0.001,0.0,0.0,0.0
25/04/2023,04:21:01,0.001,0.0,0.0,0.0
25/04/2023,04:22:01,0.003,0.0,0.0,0.0
25/04/2023,04:23:03,0.002,0.0,0.0,0.0
25/04/2023,04:24:01,0.002,0.0,0.0,0.0
25/04/2023,04:25:01,0.002,0.0,0.0,0.0
25/04/2023,04:26:01,0.002,0.0,0.0,0.0
25/04/2023,04:27:01,0.002,0.0,0.0,0.0
25/04/2023,04:28:01,0.002,0.0,0.0,0.0
25/04/2023,04:29:01,0.003,0.0,0.0,0.0
25/04/2023,04:30:01,0.002,0.0,0.0,0.0
25/04/2023,04:31:01,0.003,0.0,0.0,0.0
25/04/2023,04:32:01,0.003,0.0,0.0,0.0
25/04/2023,04:33:01,0.002,0.0,0.0,0.0
25/04/2023,04:34:01,0.001,0.0,0.0,0.0
25/04/2023,04:35:01,0.002,0.0,0.0,0.0
25/04/2023,04:36:01,0.002,0.0,0.0,0.0
25/04/2023,04:37:01,0.003,0.0,0.0,0.0
25/04/2023,04:38:00,0.002,0.0,0.0,0.0
25/04/2023,04:39:01,0.002,0.0,0.0,0.0
25/04/2023,04:40:01,0.003,0.0,0.0,0.0
25/04/2023,04:41:01,0.003,0.0,0.0,0.0
25/04/2023,04:42:00,0.003,0.0,0.0,0.0
25/04/2023,04:43:01,0.003,0.0,0.0,0.0
25/04/2023,04:44:01,0.002,0.0,0.0,0.0
25/04/2023,04:45:01,0.003,0.0,0.0,0.0
25/04/2023,04:46:01,0.002,0.0,0.0,0.0
25/04/2023,04:47:01,0.003,0.0,0.0,0.0
25/04/2023,04:48:01,0.004,0.0,0.0,0.0
25/04/2023,04:49:01,0.004,0.0,0.0,0.0
25/04/2023,04:50:01,0.004,0.0,0.0,0.0
25/04/2023,04:51:01,0.004,0.0,0.0,0.0
25/04/2023,04:52:01,0.004,0.0,0.0,0.0
25/04/2023,04:53:01,0.005,0.0,0.0,0.0
25/04/2023,04:54:01,0.004,0.0,0.0,0.0
25/04/2023,04:55:01,0.005,0.0,0.0,0.0
25/04/2023,04:56:00,0.004,0.0,0.0,0.0
25/04/2023,04:57:01,0.006,0.0,0.0,0.0
25/04/2023,04:58:01,0.005,0.0,0.0,0.0
25/04/2023,04:59:01,0.006,0.0,0.0,0.0
25/04/2023,05:00:01,0.005,0.0,0.0,0.0
25/04/2023,05:01:01,0.005,0.0,0.0,0.0
25/04/2023,05:02:01,0.006,0.0,0.0,0.0
25/04/2023,05:03:01,0.007,0.0,0.0,0.0
25/04/2023,05:04:05,0.007,0.0,0.0,0.0
25/04/2023,05:05:02,0.007,0.0,0.001,0.001
25/04/2023,05:06:01,0.008,0.0,0.001,0.0
25/04/2023,05:07:01,0.008,0.0,0.001,0.0
25/04/2023,05:08:01,0.008,0.0,0.001,0.0
25/04/2023,05:09:01,0.008,0.0,0.001,0.0
25/04/2023,05:10:01,0.009,0.0,0.001,0.0
25/04/2023,05:11:01,0.009,0.0,0.001,0.0
25/04/2023,05:12:01,0.009,0.0,0.001,0.0
25/04/2023,05:13:01,0.011,0.0,0.002,0.001
25/04/2023,05:14:01,0.010,0.0,0.002,0.0
25/04/2023,05:15:01,0.012,0.0,0.002,0.0
25/04/2023,05:16:01,0.011,0.0,0.002,0.0
25/04/2023,05:17:01,0.012,0.0,0.002,0.0
25/04/2023,05:18:01,0.012,0.0,0.003,0.001
25/04/2023,05:19:01,0.013,0.0,0.003,0.0
25/04/2023,05:20:01,0.013,0.0,0.003,0.0
25/04/2023,05:21:01,0.014,0.0,0.003,0.0
25/04/2023,05:22:01,0.014,0.0,0.003,0.0
25/04/2023,05:23:01,0.014,0.0,0.004,0.001
25/04/2023,05:24:01,0.016,0.0,0.004,0.0
25/04/2023,05:25:01,0.015,0.0,0.004,0.0
25/04/2023,05:26:01,0.016,0.0,0.004,0.0
25/04/2023,05:27:01,0.016,0.0,0.005,0.001
25/04/2023,05:28:01,0.018,0.0,0.005,0.0
25/04/2023,05:29:01,0.018,0.0,0.005,0.0
25/04/2023,05:30:01,0.018,0.0,0.006,0.001
25/04/2023,05:31:01,0.020,0.0,0.006,0.0
25/04/2023,05:32:01,0.020,0.0,0.006,0.0
25/04/2023,05:33:01,0.020,0.0,0.007,0.001
25/04/2023,05:34:01,0.021,0.0,0.007,0.0
25/04/2023,05:35:01,0.023,0.0,0.007,0.0
25/04/2023,05:36:01,0.021,0.0,0.008,0.001
25/04/2023,05:37:01,0.022,0.0,0.008,0.0
25/04/2023,05:38:01,0.024,0.0,0.008,0.0
25/04/2023,05:39:01,0.025,0.0,0.009,0.001
25/04/2023,05:40:01,0.025,0.0,0.009,0.0
25/04/2023,05:41:01,0.026,0.0,0.01,0.001
25/04/2023,05:42:01,0.028,0.0,0.01,0.0
25/04/2023,05:43:01,0.028,0.0,0.011,0.001
25/04/2023,05:44:02,0.029,0.0,0.011,0.0
25/04/2023,05:45:01,0.030,0.0,0.012,0.001
25/04/2023,05:46:01,0.031,0.0,0.012,0.0
25/04/2023,05:47:01,0.031,0.0,0.013,0.001
25/04/2023,05:48:01,0.031,0.0,0.013,0.0
25/04/2023,05:49:01,0.033,0.0,0.014,0.001
25/04/2023,05:50:01,0.034,0.0,0.014,0.0
25/04/2023,05:51:01,0.035,0.0,0.015,0.001
25/04/2023,05:52:01,0.036,0.0,0.015,0.0
25/04/2023,05:53:01,0.037,0.0,0.016,0.001
25/04/2023,05:54:02,0.038,0.0,0.017,0.001
25/04/2023,05:55:01,0.040,0.0,0.017,0.0
25/04/2023,05:56:01,0.040,0.0,0.018,0.001
25/04/2023,05:57:01,0.042,0.0,0.019,0.001
25/04/2023,05:58:01,0.042,0.0,0.019,0.0
25/04/2023,05:59:01,0.044,0.0,0.02,0.001
25/04/2023,06:00:01,0.045,0.0,0.021,0.001
25/04/2023,06:01:01,0.046,0.0,0.022,0.001
25/04/2023,06:02:01,0.046,0.0,0.022,0.0
25/04/2023,06:03:01,0.049,0.0,0.023,0.001
25/04/2023,06:04:01,0.050,0.0,0.024,0.001
25/04/2023,06:05:01,0.051,0.0,0.025,0.001
25/04/2023,06:06:01,0.053,0.0,0.026,0.001
25/04/2023,06:07:01,0.053,0.0,0.027,0.001
25/04/2023,06:08:01,0.054,0.0,0.027,0.0
25/04/2023,06:09:01,0.056,0.0,0.028,0.001
25/04/2023,06:10:02,0.058,0.0,0.029,0.001
25/04/2023,06:11:01,0.058,0.0,0.03,0.001
25/04/2023,06:12:01,0.061,0.0,0.031,0.001
25/04/2023,06:13:01,0.062,0.0,0.032,0.001
25/04/2023,06:14:01,0.063,0.0,0.033,0.001
25/04/2023,06:15:01,0.065,0.0,0.034,0.001
25/04/2023,06:16:01,0.068,0.0,0.036,0.002
25/04/2023,06:17:01,0.069,0.0,0.037,0.001
25/04/2023,06:18:01,0.071,0.0,0.038,0.001
25/04/2023,06:19:01,0.075,0.0,0.039,0.001
25/04/2023,06:20:01,0.075,0.0,0.04,0.001
25/04/2023,06:21:01,0.076,0.0,0.042,0.002
25/04/2023,06:22:01,0.078,0.0,0.043,0.001
25/04/2023,06:23:01,0.080,0.0,0.044,0.001
25/04/2023,06:24:01,0.082,0.0,0.046,0.002
25/04/2023,06:25:01,0.084,0.0,0.047,0.001
25/04/2023,06:26:01,0.086,0.0,0.048,0.001
25/04/2023,06:27:01,0.088,0.0,0.05,0.002
25/04/2023,06:28:01,0.090,0.0,0.051,0.001
25/04/2023,06:29:01,0.092,0.0,0.053,0.002
25/04/2023,06:30:02,0.094,0.0,0.054,0.001
25/04/2023,06:31:01,0.096,0.0,0.056,0.002
25/04/2023,06:32:01,0.098,0.0,0.057,0.001
25/04/2023,06:33:01,0.100,0.0,0.059,0.002
25/04/2023,06:34:01,0.102,0.0,0.061,0.002
25/04/2023,06:35:01,0.104,0.0,0.063,0.002
25/04/2023,06:36:01,0.107,0.0,0.064,0.001
25/04/2023,06:37:01,0.109,0.0,0.066,0.002
25/04/2023,06:38:01,0.113,0.0,0.068,0.002
25/04/2023,06:39:01,0.115,0.0,0.07,0.002
25/04/2023,06:40:02,0.117,0.0,0.072,0.002
25/04/2023,06:41:02,0.119,0.0,0.074,0.002
25/04/2023,06:42:01,0.122,0.0,0.076,0.002
25/04/2023,06:43:01,0.125,0.0,0.078,0.002
25/04/2023,06:44:01,0.127,0.0,0.08,0.002
25/04/2023,06:45:02,0.130,0.0,0.082,0.002
25/04/2023,06:46:01,0.133,0.0,0.084,0.002
25/04/2023,06:47:01,0.136,0.0,0.086,0.002
25/04/2023,06:48:02,0.138,0.0,0.089,0.003
25/04/2023,06:49:01,0.141,0.0,0.091,0.002
25/04/2023,06:50:01,0.144,0.0,0.094,0.003
25/04/2023,06:51:02,0.147,0.0,0.096,0.002
25/04/2023,06:52:01,0.151,0.0,0.098,0.002
25/04/2023,06:53:01,0.153,0.0,0.101,0.003
25/04/2023,06:54:02,0.156,0.0,0.104,0.003
25/04/2023,06:55:02,0.160,0.0,0.106,0.002
25/04/2023,06:56:01,0.163,0.0,0.109,0.003
25/04/2023,06:57:01,0.166,0.0,0.112,0.003
25/04/2023,06:58:01,0.169,0.0,0.114,0.002
25/04/2023,06:59:01,0.172,0.0,0.117,0.003
25/04/2023,07:00:01,0.176,0.0,0.12,0.003
25/04/2023,07:01:01,0.179,0.0,0.123,0.003
25/04/2023,07:02:01,0.181,0.0,0.126,0.003
25/04/2023,07:03:01,0.185,0.0,0.129,0.003
25/04/2023,07:04:01,0.189,0.0,0.132,0.003
25/04/2023,07:05:01,0.191,0.0,0.135,0.003
25/04/2023,07:06:01,0.196,0.0,0.139,0.004
25/04/2023,07:07:01,0.199,0.0,0.142,0.003
25/04/2023,07:08:01,0.203,0.0,0.145,0.003
25/04/2023,07:09:01,0.206,0.0,0.149,0.004
25/04/2023,07:10:02,0.211,0.0,0.152,0.003
25/04/2023,07:11:00,0.214,0.0,0.156,0.004
25/04/2023,07:12:01,0.218,1.0,0.159,0.003
25/04/2023,07:13:01,0.222,1.0,0.163,0.004
25/04/2023,07:14:01,0.226,1.0,0.167,0.004
25/04/2023,07:15:02,0.230,1.0,0.171,0.004
25/04/2023,07:16:01,0.234,1.0,0.174,0.003
25/04/2023,07:17:02,0.238,1.0,0.178,0.004
25/04/2023,07:18:01,0.241,1.0,0.182,0.004
25/04/2023,07:19:01,0.245,1.0,0.186,0.004
25/04/2023,07:20:00,0.250,1.0,0.19,0.004
25/04/2023,07:21:02,0.254,1.0,0.195,0.005
25/04/2023,07:22:01,0.259,1.0,0.199,0.004
25/04/2023,07:23:01,0.263,1.0,0.203,0.004
25/04/2023,07:24:01,0.265,1.0,0.208,0.005
25/04/2023,07:25:01,0.272,1.0,0.212,0.004
25/04/2023,07:26:01,0.275,1.0,0.217,0.005
25/04/2023,07:27:02,0.280,1.0,0.221,0.004
25/04/2023,07:28:02,0.285,1.0,0.226,0.005
25/04/2023,07:29:02,0.290,1.0,0.231,0.005
25/04/2023,07:30:01,0.294,1.0,0.236,0.005
25/04/2023,07:31:01,0.297,1.0,0.241,0.005
25/04/2023,07:32:01,0.303,1.0,0.246,0.005
25/04/2023,07:33:01,0.309,1.0,0.251,0.005
25/04/2023,07:34:02,0.313,1.0,0.256,0.005
25/04/2023,07:35:01,0.318,1.0,0.261,0.005
25/04/2023,07:36:02,0.324,1.0,0.267,0.006
25/04/2023,07:37:01,0.329,1.0,0.272,0.005
25/04/2023,07:38:01,0.335,1.0,0.278,0.006
25/04/2023,07:39:00,0.338,1.0,0.283,0.005
25/04/2023,07:40:01,0.344,1.0,0.289,0.006
25/04/2023,07:41:02,0.348,1.0,0.295,0.006
25/04/2023,07:42:01,0.354,1.0,0.3,0.005
25/04/2023,07:43:01,0.361,1.0,0.307,0.007
25/04/2023,07:44:01,0.364,1.0,0.313,0.006
25/04/2023,07:45:01,0.371,1.0,0.319,0.006
25/04/2023,07:46:01,0.376,1.0,0.325,0.006
25/04/2023,07:47:01,0.381,1.0,0.331,0.006
25/04/2023,07:48:01,0.387,1.0,0.338,0.007
25/04/2023,07:49:01,0.393,1.0,0.344,0.006
25/04/2023,07:50:02,0.398,1.0,0.351,0.007
25/04/2023,07:51:01,0.405,1.0,0.357,0.006
25/04/2023,07:52:02,0.408,1.0,0.364,0.007
25/04/2023,07:53:01,0.414,1.0,0.371,0.007
25/04/2023,07:54:01,0.421,1.0,0.378,0.007
25/04/2023,07:55:01,0.426,1.0,0.385,0.007
25/04/2023,07:56:01,0.433,1.0,0.392,0.007
25/04/2023,07:57:01,0.438,1.0,0.399,0.007
25/04/2023,07:58:03,0.445,1.0,0.407,0.008
25/04/2023,07:59:01,0.451,1.0,0.414,0.007
25/04/2023,08:00:02,0.457,1.0,0.422,0.008
25/04/2023,08:01:02,0.462,1.0,0.43,0.008
25/04/2023,08:02:02,0.469,1.0,0.437,0.007
25/04/2023,08:03:01,0.476,1.0,0.445,0.008
25/04/2023,08:04:01,0.482,1.0,0.453,0.008
25/04/2023,08:05:01,0.488,1.0,0.461,0.008
25/04/2023,08:06:02,0.495,1.0,0.47,0.009
25/04/2023,08:07:02,0.500,1.0,0.478,0.008
25/04/2023,08:08:30,0.512,1.0,0.49,0.012
25/04/2023,08:10:02,0.520,1.0,0.503,0.013
25/04/2023,08:11:01,0.528,1.0,0.512,0.009
25/04/2023,08:12:02,0.533,1.0,0.521,0.009
25/04/2023,08:13:02,0.539,1.0,0.53,0.009
25/04/2023,08:14:02,0.547,1.0,0.539,0.009
25/04/2023,08:15:01,0.553,1.0,0.548,0.009
25/04/2023,08:16:01,0.560,1.0,0.557,0.009
25/04/2023,08:17:01,0.570,1.0,0.567,0.01
25/04/2023,08:18:01,0.573,1.0,0.576,0.009
25/04/2023,08:19:01,0.579,1.0,0.586,0.01
25/04/2023,08:20:01,0.586,1.0,0.596,0.01
25/04/2023,08:21:02,0.592,1.0,0.606,0.01
25/04/2023,08:22:01,0.601,1.0,0.615,0.009
25/04/2023,08:23:01,0.609,1.0,0.625,0.01
25/04/2023,08:24:02,0.617,1.0,0.636,0.011
25/04/2023,08:25:01,0.623,1.0,0.646,0.01
25/04/2023,08:26:01,0.631,1.0,0.656,0.01
25/04/2023,08:27:02,0.640,1.0,0.667,0.011
25/04/2023,08:28:02,0.646,1.0,0.678,0.011
25/04/2023,08:29:01,0.653,2.0,0.689,0.011
25/04/2023,08:30:01,0.656,2.0,0.7,0.011
25/04/2023,08:31:02,0.663,2.0,0.711,0.011
25/04/2023,08:32:02,0.673,2.0,0.722,0.011
25/04/2023,08:33:02,0.680,2.0,0.733,0.011
25/04/2023,08:34:01,0.689,2.0,0.744,0.011
25/04/2023,08:35:01,0.695,2.0,0.756,0.012
25/04/2023,08:36:02,0.702,2.0,0.768,0.012
25/04/2023,08:37:02,0.710,2.0,0.779,0.011
25/04/2023,08:38:02,0.713,2.0,0.791,0.012
25/04/2023,08:39:02,0.726,2.0,0.803,0.012
25/04/2023,08:40:01,0.731,2.0,0.816,0.013
25/04/2023,08:41:01,0.738,2.0,0.828,0.012
25/04/2023,08:42:02,0.749,2.0,0.84,0.012
25/04/2023,08:43:02,0.756,2.0,0.853,0.013
25/04/2023,08:44:01,0.764,2.0,0.865,0.012
25/04/2023,08:45:01,0.771,2.0,0.878,0.013
25/04/2023,08:46:01,0.778,2.0,0.891,0.013
25/04/2023,08:47:02,0.787,2.0,0.904,0.013
25/04/2023,08:48:01,0.794,2.0,0.917,0.013
25/04/2023,08:49:02,0.803,2.0,0.931,0.014
25/04/2023,08:50:01,0.809,2.0,0.944,0.013
25/04/2023,08:51:01,0.818,2.0,0.958,0.014
25/04/2023,08:52:01,0.824,2.0,0.971,0.013
25/04/2023,08:53:01,0.834,2.0,0.985,0.014
25/04/2023,08:54:02,0.839,2.0,0.999,0.014
25/04/2023,08:55:01,0.851,2.0,1.013,0.014
25/04/2023,08:56:02,0.854,2.0,1.027,0.014
25/04/2023,08:57:01,0.862,2.0,1.041,0.014
25/04/2023,08:58:01,0.877,2.0,1.056,0.015
25/04/2023,08:59:02,0.883,2.0,1.071,0.015
25/04/2023,09:00:02,0.892,2.0,1.086,0.015
25/04/2023,09:01:02,0.902,2.0,1.1,0.014
25/04/2023,09:02:02,0.903,2.0,1.116,0.016
25/04/2023,09:03:02,0.912,2.0,1.131,0.015
25/04/2023,09:04:02,0.924,2.0,1.146,0.015
25/04/2023,09:05:01,0.938,2.0,1.161,0.015
25/04/2023,09:06:01,0.944,2.0,1.177,0.016
25/04/2023,09:07:01,0.950,2.0,1.193,0.016
25/04/2023,09:08:01,0.964,2.0,1.209,0.016
25/04/2023,09:09:01,0.965,2.0,1.225,0.016
25/04/2023,09:10:02,0.975,2.0,1.241,0.016
25/04/2023,09:11:02,0.849,2.0,1.257,0.016
25/04/2023,09:12:01,1.001,2.0,1.272,0.015
25/04/2023,09:13:02,0.673,2.0,1.288,0.016
25/04/2023,09:14:02,0.994,2.0,1.303,0.015
25/04/2023,09:15:02,1.037,2.0,1.316,0.013
25/04/2023,09:16:01,1.047,2.0,1.333,0.017
25/04/2023,09:17:01,1.056,2.0,1.351,0.018
25/04/2023,09:18:01,1.061,2.0,1.369,0.018
25/04/2023,09:19:01,1.070,2.0,1.386,0.017
25/04/2023,09:20:01,1.088,3.0,1.404,0.018
25/04/2023,09:21:00,1.108,3.0,1.422,0.018
25/04/2023,09:22:02,1.130,3.0,1.441,0.019
25/04/2023,09:23:02,1.128,3.0,1.46,0.019
25/04/2023,09:24:02,1.133,3.0,1.479,0.019
25/04/2023,09:25:02,1.131,3.0,1.498,0.019
25/04/2023,09:26:01,1.142,3.0,1.516,0.018
25/04/2023,09:27:01,1.165,3.0,1.536,0.02
25/04/2023,09:28:01,1.184,3.0,1.555,0.019
25/04/2023,09:29:01,1.196,3.0,1.575,0.02
25/04/2023,09:30:01,1.198,3.0,1.595,0.02
25/04/2023,09:31:01,1.207,3.0,1.615,0.02
25/04/2023,09:32:02,1.211,3.0,1.635,0.02
25/04/2023,09:33:02,1.216,3.0,1.656,0.021
25/04/2023,09:34:01,1.225,3.0,1.675,0.019
25/04/2023,09:35:01,1.236,3.0,1.696,0.021
25/04/2023,09:36:01,1.239,3.0,1.717,0.021
25/04/2023,09:37:02,1.263,3.0,1.738,0.021
25/04/2023,09:38:02,1.278,3.0,1.759,0.021
25/04/2023,09:39:01,1.280,3.0,1.78,0.021
25/04/2023,09:40:02,1.280,3.0,1.802,0.022
25/04/2023,09:41:02,1.283,3.0,1.823,0.021
25/04/2023,09:42:02,1.281,3.0,1.844,0.021
25/04/2023,09:43:02,1.276,3.0,1.866,0.022
25/04/2023,09:44:01,1.286,3.0,1.885,0.019
25/04/2023,09:45:02,1.275,3.0,1.903,0.018
25/04/2023,09:46:02,1.342,3.0,1.925,0.022
25/04/2023,09:47:01,1.351,3.0,1.947,0.022
25/04/2023,09:48:01,1.354,3.0,1.97,0.023
25/04/2023,09:49:01,1.359,3.0,1.992,0.022
25/04/2023,09:50:02,1.367,3.0,2.015,0.023
25/04/2023,09:51:01,1.235,3.0,2.034,0.019
25/04/2023,09:52:01,1.373,3.0,2.057,0.023
25/04/2023,09:53:01,1.388,3.0,2.076,0.019
25/04/2023,09:54:01,1.258,3.0,2.095,0.019
25/04/2023,09:55:01,1.368,3.0,2.118,0.023
25/04/2023,09:56:01,1.360,3.0,2.14,0.022
25/04/2023,09:57:02,1.319,3.0,2.163,0.023
25/04/2023,09:58:01,1.377,3.0,2.185,0.022
25/04/2023,09:59:01,1.393,3.0,2.207,0.022
25/04/2023,10:00:01,0.855,2.0,2.227,0.02
25/04/2023,10:01:01,1.416,3.0,2.243,0.016